TimeEST,TemperatureF,Dew PointF,Humidity,Sea Level PressureIn,VisibilityMPH,Wind Direction,Wind SpeedMPH,Gust SpeedMPH,PrecipitationIn,Events,Conditions,WindDirDegrees,DateUTC
12:53 AM,45.0,43.0,93,29.83,5.0,East,3.5,-,0.04,Rain,Light Rain,90,2012-12-29 05:53:00
1:53 AM,45.0,44.1,97,29.79,4.0,ENE,4.6,-,0.09,Rain,Light Rain,60,2012-12-29 06:53:00
2:03 AM,44.6,44.6,100,29.81,3.0,North,8.1,-,0.02,Rain,Light Rain,360,2012-12-29 07:03:00
2:28 AM,44.6,44.6,100,29.85,2.5,NNW,12.7,-,0.08,Rain,Rain,330,2012-12-29 07:28:00
2:53 AM,44.1,44.1,100,29.84,4.0,North,8.1,-,0.17,Rain,Light Rain,360,2012-12-29 07:53:00
3:23 AM,44.6,44.6,100,29.81,5.0,ENE,5.8,-,0.05,Rain,Light Rain,60,2012-12-29 08:23:00
3:53 AM,44.1,44.1,100,29.78,7.0,Variable,5.8,-,0.05,,Overcast,0,2012-12-29 08:53:00
4:53 AM,45.0,44.1,97,29.79,8.0,WNW,4.6,-,0.00,,Overcast,290,2012-12-29 09:53:00
5:25 AM,44.6,44.6,100,29.79,8.0,Calm,Calm,-,N/A,,Overcast,0,2012-12-29 10:25:00
5:53 AM,45.0,44.1,97,29.81,6.0,WNW,4.6,-,N/A,,Overcast,300,2012-12-29 10:53:00
6:01 AM,44.6,44.6,100,29.81,7.0,WNW,4.6,-,N/A,,Overcast,300,2012-12-29 11:01:00
6:53 AM,44.6,44.6,100,29.85,6.0,WNW,4.6,-,N/A,,Overcast,290,2012-12-29 11:53:00
7:53 AM,45.0,44.1,97,29.88,7.0,WNW,6.9,-,N/A,,Overcast,290,2012-12-29 12:53:00
8:04 AM,44.6,44.6,100,29.89,6.0,WNW,5.8,-,N/A,,Overcast,290,2012-12-29 13:04:00
8:19 AM,44.6,44.6,100,29.90,8.0,West,9.2,-,N/A,,Overcast,280,2012-12-29 13:19:00
8:53 AM,46.9,45.0,93,29.91,10.0,WNW,11.5,-,N/A,,Overcast,290,2012-12-29 13:53:00
9:53 AM,48.0,43.0,83,29.94,10.0,WNW,10.4,20.7,N/A,,Overcast,300,2012-12-29 14:53:00
10:53 AM,48.0,41.0,77,29.97,10.0,NW,11.5,20.7,N/A,,Overcast,310,2012-12-29 15:53:00
11:53 AM,48.0,39.9,74,29.97,10.0,West,9.2,-,N/A,,Overcast,280,2012-12-29 16:53:00
12:53 PM,48.0,39.9,74,29.96,10.0,West,13.8,23.0,N/A,,Overcast,280,2012-12-29 17:53:00
1:53 PM,48.9,37.0,64,29.95,10.0,WNW,11.5,19.6,N/A,,Overcast,300,2012-12-29 18:53:00
2:53 PM,46.0,37.0,71,29.98,10.0,WNW,18.4,25.3,N/A,,Overcast,290,2012-12-29 19:53:00
3:53 PM,43.0,34.0,71,30.02,10.0,WNW,15.0,25.3,N/A,,Overcast,300,2012-12-29 20:53:00
4:46 PM,42.8,30.2,61,30.04,10.0,NW,20.7,27.6,N/A,,Overcast,310,2012-12-29 21:46:00
4:53 PM,42.1,30.9,65,30.05,10.0,NW,12.7,28.8,N/A,,Overcast,310,2012-12-29 21:53:00
5:53 PM,42.1,30.0,62,30.07,10.0,WNW,12.7,20.7,N/A,,Overcast,300,2012-12-29 22:53:00
6:53 PM,41.0,28.9,62,30.12,10.0,WNW,15.0,27.6,N/A,,Overcast,300,2012-12-29 23:53:00
7:53 PM,39.9,26.1,58,30.15,10.0,NW,19.6,25.3,N/A,,Overcast,310,2012-12-30 00:53:00
8:53 PM,39.0,27.0,62,30.16,10.0,NW,17.3,24.2,N/A,,Overcast,310,2012-12-30 01:53:00
9:53 PM,39.0,27.0,62,30.19,10.0,NW,11.5,23.0,N/A,,Mostly Cloudy,310,2012-12-30 02:53:00
10:53 PM,39.0,27.0,62,30.21,10.0,WNW,15.0,20.7,N/A,,Overcast,300,2012-12-30 03:53:00
11:53 PM,37.9,27.0,65,30.22,10.0,WNW,11.5,18.4,N/A,,Overcast,290,2012-12-30 04:53:00